RH
35 36 36 36 36 36 34 31 27 23 19 15 13 10 8 9 8 7 6 7 9 9 10 11 12 14 14 14 15 14 14 14 13 14 12 9 12 17 24 28 27 23 17 12 10 15 22 22 21 21 24 25 21 16 13 13 11 11 14 18 19 18 15 11 10 8 6 6 6 7 5 8 7 7 6 7 8 5 25 37 32 41 43 47 49 55 72 79
38 37 38 39 37 35 34 33 31 28 21 14 11 10 8 8 9 8 6 7 9 11 12 12 14 14 14 14 13 14 13 13 12 11 10 10 15 20 27 31 29 26 22 13 9 18 25 25 23 19 20 19 16 14 12 11 10 10 14 18 17 15 11 8 8 6 6 5 6 6 5 8 6 7 7 6 10 5 30 51 44 56 62 59 60 63 74 78
37 36 38 39 37 36 39 39 37 36 32 22 11 8 9 7 9 10 7 7 8 11 12 12 14 13 14 14 13 14 11 13 15 15 16 14 16 20 25 30 29 26 21 13 10 19 25 23 21 16 16 16 14 13 11 10 9 9 12 16 16 11 9 7 7 6 5 6 6 6 5 7 5 7 7 7 11 5 28 60 63 75 81 74 70 67 74 77
38 36 37 40 39 40 43 41 38 37 39 37 22 8 8 8 8 9 10 8 7 10 12 13 13 13 14 12 14 11 9 25 33 29 27 20 18 16 15 19 20 17 14 11 10 16 20 19 18 14 13 14 12 11 10 9 8 9 11 14 12 8 9 7 6 5 5 6 5 7 6 6 6 6 7 8 9 5 19 45 60 76 81 78 75 69 72 77
39 38 37 39 40 43 42 38 36 34 35 41 37 18 7 9 9 8 10 9 7 8 10 13 12 13 13 11 12 8 19 44 41 31 31 27 24 16 10 11 10 9 10 10 10 15 19 19 19 15 12 11 11 10 9 8 7 9 10 10 10 8 9 6 5 5 5 6 5 7 6 6 6 5 8 6 8 16 23 32 50 71 76 75 76 75 76 79
36 39 39 38 38 42 41 37 35 33 31 35 43 37 18 9 9 8 9 10 9 7 8 11 11 12 11 10 10 9 31 48 34 29 32 27 23 16 12 10 8 9 10 10 13 19 22 21 19 15 11 10 10 10 8 7 7 9 9 8 8 7 7 6 6 5 5 6 6 6 6 6 5 6 6 3 14 29 32 38 58 74 78 79 79 81 83 81
29 36 40 39 38 38 39 37 33 31 30 30 39 49 36 15 11 12 10 12 11 7 6 8 9 10 9 9 10 20 41 41 30 33 31 24 19 13 13 11 9 9 10 15 20 23 24 22 16 11 10 9 9 9 7 6 6 8 9 7 7 7 6 6 5 5 5 5 6 6 5 6 5 7 5 11 35 48 46 50 64 77 84 90 90 91 89 83
19 28 35 40 41 38 37 36 33 29 29 30 34 47 42 18 12 13 12 13 11 9 7 6 8 8 8 11 20 39 48 38 33 36 31 25 16 10 12 10 8 10 14 20 22 24 26 20 11 9 9 8 7 7 6 6 6 7 8 7 6 6 5 6 5 5 5 4 6 5 6 6 5 7 3 19 51 59 59 56 58 75 86 93 96 96 93 88
13 19 26 34 40 41 38 34 33 29 26 30 33 42 40 21 14 14 13 13 11 11 7 6 8 7 9 14 32 52 43 31 34 33 29 22 12 9 9 9 9 11 17 20 21 23 26 20 9 7 8 7 7 6 6 7 7 7 6 6 6 6 5 6 5 5 5 5 5 4 7 5 4 8 2 19 49 53 60 65 63 74 82 88 95 97 94 90
10 12 18 25 33 38 38 35 33 29 25 28 32 38 39 29 21 15 12 12 12 11 8 8 7 8 12 18 46 61 34 22 30 27 25 17 9 10 7 8 9 10 15 18 21 22 22 18 8 7 8 6 7 6 7 7 7 6 5 6 6 6 5 5 5 4 5 5 5 5 7 5 5 8 4 23 48 45 53 64 65 71 75 84 92 94 96 91
9 10 12 17 24 31 34 34 33 30 25 26 32 35 37 35 30 21 14 12 11 11 8 8 7 10 14 21 49 57 27 20 25 19 22 16 9 9 8 10 10 11 17 19 21 18 16 14 8 9 10 8 8 7 7 7 7 6 5 6 6 7 6 6 6 5 5 5 5 5 6 6 6 5 11 31 44 40 47 55 60 70 75 82 88 91 93 88
8 9 10 11 16 22 27 31 32 31 25 24 32 34 35 35 34 29 20 12 11 11 8 8 9 11 17 23 34 36 23 21 19 16 21 14 9 12 13 15 15 16 19 19 18 14 12 11 9 11 11 10 10 9 9 7 7 6 5 7 7 8 7 7 7 5 6 6 5 6 7 9 6 6 21 35 35 33 43 47 55 73 78 77 78 83 87 84
6 8 10 10 12 15 22 27 29 32 27 23 29 34 35 33 34 33 28 23 15 10 8 10 11 12 22 28 24 24 23 20 16 18 21 15 13 18 20 21 20 19 17 17 17 13 10 9 9 11 11 11 10 10 11 9 9 7 6 8 8 9 8 7 7 6 6 5 5 6 11 15 7 10 29 34 31 33 38 42 51 70 82 76 69 72 76 76
5 7 9 10 10 11 15 21 26 30 28 24 26 33 34 31 33 31 32 33 24 17 11 10 14 18 29 30 22 25 22 17 18 18 20 18 16 19 21 21 20 19 17 16 17 15 11 9 10 10 10 10 10 11 11 9 9 9 8 9 9 12 10 6 6 6 6 6 5 6 13 18 8 11 27 29 31 34 36 44 52 64 76 75 70 71 69 69
5 7 9 10 11 10 11 15 21 26 28 25 23 31 34 31 32 31 33 34 32 27 14 15 28 35 46 36 22 27 22 17 19 15 18 20 18 19 19 18 18 17 17 17 17 14 11 11 11 11 10 10 10 11 11 10 10 9 12 15 13 11 10 7 6 7 6 6 5 7 13 16 8 9 21 23 25 32 37 45 54 63 68 68 72 73 71 71
5 7 9 10 11 11 11 11 15 20 24 25 23 28 32 31 30 31 33 32 35 33 18 30 49 52 59 45 23 25 22 17 15 13 17 17 17 19 16 15 15 15 15 15 15 12 11 11 10 10 10 11 13 13 12 14 14 12 14 19 17 13 10 8 6 6 6 7 6 8 13 14 10 10 18 21 20 29 39 45 55 64 63 62 66 71 73 74
5 7 9 11 11 12 11 10 11 13 18 23 23 24 29 31 30 30 34 32 35 33 22 32 53 57 53 37 24 25 21 16 15 15 15 14 15 15 12 12 12 13 13 12 12 10 11 10 11 13 12 14 16 16 18 21 22 21 17 17 18 13 12 11 8 7 5 7 8 8 11 12 12 12 15 19 20 29 41 49 59 65 62 60 60 64 69 68
5 7 10 11 11 12 11 10 11 11 14 18 20 24 29 29 28 31 34 34 34 34 29 30 47 61 47 28 26 26 19 17 17 15 14 13 13 12 10 11 11 12 10 11 12 11 12 11 11 17 18 19 19 17 22 24 24 27 23 22 24 18 14 12 9 8 6 8 10 11 12 11 13 13 10 15 23 32 41 51 60 61 60 58 54 57 60 58
5 7 11 11 11 11 10 12 13 12 13 17 23 28 30 33 41 42 34 33 38 37 35 32 37 47 35 21 23 23 19 18 16 15 13 11 12 12 11 10 11 11 10 14 15 11 12 14 14 20 24 24 23 20 21 23 22 25 25 23 25 19 13 11 8 8 7 8 10 12 15 13 14 14 11 15 26 33 37 46 55 57 58 57 51 53 55 54
6 6 10 11 11 11 11 13 15 18 21 25 30 30 35 48 59 57 40 34 37 33 28 24 22 24 20 18 20 21 20 17 15 15 13 11 12 13 11 11 11 11 13 19 21 14 12 21 23 24 25 26 31 29 27 32 31 26 24 22 20 17 14 11 8 10 14 16 14 14 15 14 14 16 15 13 20 33 37 43 50 51 54 58 55 51 50 51
9 7 9 11 12 12 14 17 23 30 31 30 32 31 38 48 49 46 40 35 33 31 28 23 19 20 21 20 19 18 18 16 16 15 13 12 11 12 12 11 12 16 18 17 20 16 14 25 30 26 28 30 34 34 31 35 36 30 26 23 20 18 15 15 14 11 16 21 20 19 16 17 18 17 19 13 15 33 41 43 47 47 50 55 56 52 49 53
12 9 8 10 13 15 19 25 31 33 31 29 29 27 32 38 33 29 33 35 32 30 31 26 22 22 22 22 20 17 16 16 15 13 14 13 12 13 12 11 14 20 21 17 19 23 23 28 28 25 30 31 30 33 33 32 32 29 25 24 25 20 14 24 28 15 15 21 20 23 22 25 26 19 21 20 17 28 38 41 42 43 47 50 53 57 58 59
13 11 9 10 13 19 24 29 31 29 26 24 22 23 28 33 32 30 33 39 37 30 29 29 29 25 20 20 19 16 16 15 14 13 14 13 12 12 11 12 14 16 20 22 24 29 32 29 25 27 31 29 27 29 31 32 31 27 23 23 25 20 13 27 38 26 24 28 21 25 29 29 29 23 22 19 14 18 26 35 38 38 43 45 47 55 60 56
13 12 12 9 10 17 24 28 29 29 29 26 25 29 30 32 35 35 35 40 40 31 24 24 27 26 20 17 16 16 16 14 14 14 13 13 12 11 12 12 13 14 16 18 21 24 24 21 22 30 31 25 24 24 22 26 32 31 28 23 21 21 16 22 34 31 33 36 26 25 35 39 31 23 23 17 13 16 15 21 29 30 35 39 44 49 53 52
13 13 13 11 9 11 19 25 27 36 42 35 34 34 31 35 38 35 37 50 52 35 22 22 23 23 18 15 15 15 15 14 14 13 12 13 12 12 12 11 13 16 14 13 17 18 17 17 21 27 27 23 23 24 21 23 29 33 34 30 24 23 22 23 28 31 35 40 35 28 40 54 40 21 23 20 17 20 14 14 18 16 20 31 44 49 48 50
13 12 14 15 11 9 15 20 28 48 52 38 33 34 33 38 37 31 43 70 69 40 25 25 22 19 16 14 13 14 16 15 12 13 13 13 12 11 13 12 12 14 13 13 16 17 17 19 22 24 26 26 25 23 24 24 26 31 33 31 28 24 25 28 26 27 33 39 39 32 36 56 47 26 25 22 19 21 19 20 18 12 20 33 45 50 49 50
12 12 13 15 13 10 10 13 25 42 45 36 29 27 32 35 32 34 56 83 74 40 24 21 18 15 12 12 11 14 21 17 12 12 12 13 12 10 13 15 14 12 10 14 21 25 26 23 22 23 23 23 23 25 29 25 21 31 33 25 24 23 26 32 27 25 29 30 34 31 27 38 40 31 27 22 19 22 21 23 21 15 25 39 45 46 45 46
10 10 12 15 14 12 11 11 15 21 24 28 29 31 36 32 27 41 70 84 59 28 18 16 14 14 11 12 12 14 18 15 15 16 12 13 12 10 13 14 13 14 11 14 22 29 30 28 27 27 22 21 22 23 26 24 21 29 32 25 21 21 25 28 26 27 26 24 35 39 26 29 39 34 26 20 18 23 24 24 23 15 22 40 46 42 41 44
10 9 11 15 14 16 23 23 21 24 24 25 34 41 36 27 33 56 80 77 43 19 17 14 14 16 13 13 14 14 14 12 16 16 11 12 12 10 14 13 12 14 14 15 21 24 23 22 24 24 22 22 22 18 16 18 23 26 24 22 20 20 25 26 27 30 27 31 46 47 28 28 44 40 30 30 24 24 26 24 22 13 15 34 42 40 42 46
10 9 9 12 15 19 27 33 38 43 41 38 45 43 30 31 51 77 88 69 37 20 17 14 14 15 15 15 16 15 15 13 13 12 12 12 12 11 12 12 12 15 20 21 21 20 14 12 14 16 18 18 16 16 13 12 19 23 20 21 23 23 24 24 26 27 30 44 54 46 31 31 43 38 35 40 30 26 30 27 26 18 15 30 38 38 41 40
10 10 9 9 15 18 22 38 52 53 51 52 47 35 34 42 56 78 78 46 29 27 19 16 16 14 14 16 17 16 15 14 12 12 15 14 14 13 13 16 15 17 27 28 24 19 12 12 15 12 12 12 11 12 12 9 12 18 19 21 26 33 37 37 38 35 40 56 54 39 33 37 43 41 39 40 29 27 33 28 27 25 20 26 31 35 38 38
10 11 10 7 13 17 18 31 44 48 51 47 36 30 44 59 63 72 62 37 38 38 22 18 17 13 15 15 16 16 15 16 13 12 14 15 20 19 17 22 21 21 30 32 30 28 22 17 14 12 11 9 11 13 13 12 13 15 18 21 24 36 52 58 56 50 53 63 56 39 36 41 46 44 40 36 26 22 26 24 25 26 21 20 25 33 38 40
10 10 9 7 10 15 17 22 30 39 41 35 37 44 52 68 72 62 48 41 43 33 17 18 15 11 15 15 16 16 14 15 14 13 13 13 20 22 17 18 17 22 32 33 32 34 36 31 17 14 16 10 10 15 17 16 15 16 19 25 31 37 50 59 54 49 57 64 55 42 42 46 50 50 40 32 26 22 22 23 24 22 19 20 28 39 42 41
8 9 10 8 7 10 15 22 30 39 42 38 48 59 63 72 68 49 39 36 30 20 16 19 15 12 14 14 16 14 13 17 13 12 14 13 19 25 20 16 15 19 27 29 29 28 37 44 30 19 19 13 10 13 16 14 14 17 14 20 36 40 45 54 54 55 61 59 49 41 42 47 56 62 49 31 24 21 22 24 21 20 23 28 35 44 48 45
7 8 9 9 8 8 9 18 31 39 47 53 58 64 73 72 56 42 38 29 20 16 14 14 14 16 15 12 14 10 14 26 19 11 16 17 22 27 24 19 16 17 24 32 33 24 26 36 28 16 15 12 10 10 9 10 18 24 16 18 33 37 39 49 54 56 52 48 49 45 42 46 55 60 46 27 21 20 19 20 20 25 33 38 43 49 54 54
9 7 9 9 8 8 7 11 23 32 42 58 70 72 70 58 42 36 30 20 17 14 12 16 17 18 19 16 15 9 11 24 21 16 18 16 18 20 18 18 14 13 24 36 35 23 23 31 22 13 13 9 9 11 7 10 21 24 18 21 25 23 31 43 46 43 40 47 54 44 36 39 40 44 37 23 22 22 19 21 28 36 40 44 51 57 60 62
10 6 8 9 7 13 18 13 16 30 43 59 74 72 56 40 31 27 21 17 17 12 12 23 22 19 22 21 18 13 11 17 16 18 21 19 25 23 11 13 15 10 15 26 29 21 21 32 24 11 12 10 7 10 9 9 14 17 19 21 17 15 27 38 38 38 38 45 47 37 36 39 37 45 44 26 21 23 21 27 38 43 45 49 55 59 62 65
11 13 10 5 6 18 32 33 32 43 53 63 74 65 44 32 26 21 18 17 16 12 14 24 22 18 21 23 22 16 15 20 18 17 19 19 29 30 14 12 15 11 10 15 25 24 18 30 31 15 11 12 7 8 13 12 9 12 14 12 16 27 34 33 36 45 46 43 42 39 38 38 40 50 48 33 30 33 29 34 43 47 49 52 55 58 61 64
19 41 31 9 9 15 27 43 46 45 53 65 72 58 36 27 22 17 16 14 13 13 15 19 18 17 18 19 21 16 14 20 17 16 21 24 32 34 23 18 16 13 13 14 21 24 19 31 42 26 12 12 12 15 22 22 15 14 13 10 16 25 28 30 35 42 45 43 43 44 41 43 50 51 45 40 42 42 38 39 45 48 49 50 53 58 60 62
21 53 46 23 22 20 22 39 42 42 54 62 60 46 29 21 17 14 15 13 12 13 16 17 15 17 18 15 17 16 13 16 15 17 23 26 33 35 26 19 15 13 13 12 16 22 23 34 47 38 20 16 20 20 22 23 20 20 24 27 30 28 29 38 38 30 34 43 49 50 48 54 62 53 42 42 44 44 45 45 47 48 48 49 51 56 61 62
20 45 39 28 33 27 27 41 42 42 50 50 44 35 26 21 17 14 13 12 12 14 16 16 16 16 16 17 18 17 15 15 16 18 18 18 26 32 26 16 12 12 15 17 21 28 31 34 44 44 30 24 23 16 11 14 17 19 24 29 40 48 47 49 51 44 37 45 62 68 61 61 62 49 40 43 42 43 46 46 47 49 47 48 49 52 59 63
42 53 35 29 36 32 35 45 43 39 39 38 35 28 22 20 16 14 12 12 13 15 15 14 15 14 13 16 17 16 16 18 18 17 17 20 24 24 18 13 11 11 17 24 28 33 35 32 36 40 31 22 18 13 11 11 10 14 20 22 30 45 49 49 57 59 45 41 59 71 69 70 67 50 42 47 42 37 41 42 45 48 46 45 47 48 54 58
57 56 38 36 36 30 40 51 46 39 35 31 25 20 20 19 16 15 13 12 13 14 15 13 12 13 13 14 14 14 17 20 19 15 15 20 20 15 12 12 12 11 17 30 34 33 34 31 31 35 31 25 20 13 11 10 8 14 21 19 17 24 36 39 40 44 42 36 43 53 54 61 66 52 40 40 35 33 39 40 42 46 44 42 44 44 47 50
51 48 40 41 37 30 42 53 51 48 40 29 23 22 20 16 14 15 12 13 15 14 16 15 13 15 15 14 15 15 18 23 23 17 16 20 18 15 13 12 17 22 25 34 37 32 35 36 35 37 40 43 40 31 27 24 19 20 22 23 21 19 29 36 33 40 47 37 33 43 48 53 59 50 35 33 35 39 41 39 41 45 43 42 43 42 43 44
54 53 40 35 34 31 37 40 40 44 41 31 30 29 24 18 16 15 13 14 13 14 18 17 14 16 15 15 19 17 15 20 24 20 16 18 18 15 13 12 20 28 26 24 24 28 37 42 43 44 48 55 54 43 35 29 25 25 24 25 24 19 28 38 37 45 53 42 34 42 53 58 53 41 33 33 38 45 46 42 41 44 43 41 40 40 40 40
62 62 49 42 36 28 29 27 24 34 36 31 32 30 25 23 19 15 16 17 15 15 19 16 13 17 18 19 25 26 21 17 20 22 19 19 19 14 14 19 24 27 25 19 18 27 38 40 39 42 47 52 47 33 23 20 23 26 25 25 25 24 33 39 38 43 49 45 43 47 55 58 43 30 32 34 34 43 50 48 45 43 42 39 38 39 38 37
61 62 59 61 56 42 40 34 27 33 35 32 36 33 28 28 24 20 19 18 17 20 23 19 15 19 23 25 28 30 26 19 21 33 38 34 27 16 13 22 27 25 22 17 17 25 35 41 40 37 35 34 27 19 17 18 20 21 23 25 27 30 34 33 36 46 48 50 55 51 46 47 36 27 33 36 34 38 46 48 45 41 40 38 38 39 38 38
60 61 57 60 67 66 62 46 30 32 33 31 36 36 36 37 35 32 25 18 19 23 29 31 25 22 25 29 33 35 33 34 42 51 54 48 41 31 22 22 24 22 19 18 19 24 34 43 40 31 30 28 21 19 21 20 19 21 24 28 31 38 40 34 36 43 41 50 62 51 37 38 37 31 32 36 34 31 32 35 36 36 38 37 37 38 39 41
61 65 58 57 64 66 62 44 28 32 37 38 40 37 36 40 40 34 26 26 32 28 30 41 38 30 30 34 42 50 53 60 65 61 54 51 50 45 36 31 27 21 21 25 28 31 39 45 38 33 39 38 29 28 27 24 25 26 26 29 33 40 45 41 41 41 35 42 56 52 43 44 40 30 30 31 28 25 25 26 27 32 34 34 34 35 37 41
59 69 65 67 68 58 53 42 31 39 45 46 49 42 32 36 38 31 23 31 45 38 32 42 41 32 33 36 44 52 53 58 63 56 48 51 54 48 42 40 35 27 24 29 35 38 43 47 40 39 52 53 38 32 30 28 32 34 33 37 41 42 45 43 40 41 39 43 51 53 53 53 44 31 29 29 26 28 30 27 27 31 31 30 32 33 32 37
45 65 67 74 77 60 52 46 36 47 55 50 49 42 33 33 34 32 31 32 39 38 33 41 47 42 39 41 46 47 41 42 48 43 36 39 42 39 36 34 31 32 31 32 39 43 45 48 42 41 60 63 41 34 39 38 41 46 47 48 48 43 44 43 41 43 45 47 55 58 57 57 48 35 34 36 33 34 34 30 31 34 33 33 34 33 32 33
28 56 62 69 78 62 47 43 39 48 56 45 37 34 32 32 29 36 48 42 33 34 34 37 47 51 48 48 47 42 35 32 35 32 28 29 27 24 26 25 22 27 30 31 41 45 43 49 50 49 60 59 40 38 48 47 52 63 58 45 39 39 44 48 49 50 47 47 55 56 50 49 43 35 39 44 40 37 34 32 36 38 36 36 36 35 36 35
Wind_Speed
9 9 9 9 9 8 8 9 9 9 9 10 10 9 9 8 8 7 7 6 5 5 4 4 5 5 5 5 6 7 8 9 9 13 15 8 9 12 9 7 8 7 6 7 7 8 9 7 8 6 7 13 15 16 14 14 17 13 4 4 5 4 6 6 7 9 4 1 2 6 8 5 5 8 9 5 2 2 14 21 15 16 18 20 23 31 34 30
9 9 9 9 8 8 8 8 9 9 9 10 10 9 9 8 7 7 6 5 4 4 4 4 5 5 5 5 7 8 8 9 11 16 11 3 11 12 9 10 11 9 8 8 10 11 10 9 10 8 11 15 14 15 14 12 14 9 2 3 5 5 8 11 13 11 8 4 3 7 9 7 4 6 8 4 4 3 10 16 17 23 22 24 32 35 34 32
8 8 9 8 8 7 8 8 9 9 10 10 10 9 8 7 7 7 6 5 4 4 4 4 4 4 4 5 7 8 9 10 13 13 4 4 10 10 9 12 13 12 12 10 12 11 9 10 11 12 16 16 15 17 14 12 12 11 7 3 4 6 8 16 19 14 11 7 4 8 10 8 4 4 4 3 6 7 4 12 14 22 26 31 37 38 36 33
7 7 8 8 7 7 7 8 9 10 11 11 11 9 8 7 7 7 6 6 5 4 4 4 4 4 4 5 6 7 9 8 8 6 1 1 2 3 6 9 11 12 12 11 13 14 11 14 15 16 16 13 16 17 13 13 11 9 10 5 6 9 8 18 21 14 11 11 10 9 8 7 6 6 2 1 3 6 3 18 20 23 31 33 38 39 37 34
7 7 7 7 7 6 6 7 8 10 11 11 11 10 9 7 7 7 7 6 5 5 5 5 4 4 5 5 6 7 6 4 3 2 3 5 5 2 3 5 9 10 12 12 13 14 12 15 16 18 14 8 11 12 11 18 15 6 7 9 12 13 9 17 22 13 8 10 10 8 7 6 7 8 3 2 3 2 2 19 28 32 35 34 37 37 36 36
7 7 7 7 6 6 7 8 8 10 11 12 12 11 10 8 7 7 7 7 5 5 5 5 4 5 4 4 7 6 3 0 1 4 6 7 7 4 2 5 8 10 12 12 12 12 10 13 14 13 9 5 7 7 11 20 18 7 6 10 15 17 11 16 23 15 8 6 4 3 8 10 9 6 5 7 2 8 9 22 29 31 30 31 35 35 36 37
8 7 7 6 6 6 7 8 8 9 11 12 12 11 10 9 9 7 7 7 6 5 5 5 4 5 4 5 6 5 7 7 4 4 7 8 7 4 4 7 9 11 13 14 14 11 10 14 14 12 7 5 7 9 15 21 16 10 6 8 15 18 16 18 21 17 10 5 5 5 8 11 10 5 7 5 16 22 22 29 29 27 24 25 29 31 34 35
8 8 7 7 7 7 7 7 8 9 10 11 12 11 10 10 9 8 7 6 5 5 5 5 5 5 3 3 5 6 10 9 3 4 7 9 8 5 5 8 11 13 15 15 14 11 13 16 14 13 7 5 10 11 15 17 12 10 9 9 13 15 19 21 21 21 15 8 8 8 6 11 16 8 7 5 28 31 30 31 28 26 24 24 26 28 31 32
9 9 8 8 7 7 7 7 8 8 9 10 12 11 10 10 9 8 7 6 5 5 5 5 5 4 3 1 4 5 7 7 3 6 9 10 8 5 6 9 12 16 17 13 10 10 14 16 15 15 10 11 14 12 12 9 5 9 10 8 8 10 17 22 22 20 15 11 9 8 5 13 19 10 8 7 30 31 30 31 27 26 24 24 24 26 28 29
9 9 9 8 8 8 7 7 8 8 9 10 11 11 10 10 9 9 7 6 5 5 5 5 5 3 3 2 2 2 4 6 6 8 11 10 6 5 7 10 12 17 18 11 7 11 15 15 15 15 13 13 12 10 12 10 8 10 7 5 7 10 16 21 18 13 12 14 14 8 5 14 19 11 6 12 31 29 28 28 24 24 24 24 24 25 25 26
9 9 9 9 8 8 8 7 7 8 8 9 10 10 10 9 9 9 8 7 5 5 5 4 4 3 4 4 3 2 3 6 9 10 12 6 5 7 9 11 13 14 13 9 9 11 14 16 15 12 7 5 7 10 11 12 14 17 11 5 8 10 13 16 13 11 11 11 13 11 8 14 15 10 5 21 30 27 27 26 22 22 21 23 23 23 24 25
9 9 9 9 9 9 8 8 7 8 8 8 9 9 10 9 8 9 8 7 6 5 5 4 3 3 5 7 10 7 2 4 10 12 9 3 5 9 10 10 10 10 9 11 12 9 11 15 13 9 7 8 7 6 8 14 16 17 13 5 5 7 10 13 10 14 12 5 11 11 7 9 9 6 17 28 26 24 26 25 23 23 21 21 21 22 23 24
9 9 9 9 9 9 9 8 8 8 8 8 8 8 9 9 8 8 7 7 6 5 4 4 4 5 6 8 10 6 0 1 7 10 6 2 6 9 7 6 5 7 11 16 15 10 10 14 11 8 13 12 8 7 13 20 17 11 8 3 4 5 7 11 11 16 12 10 16 10 3 7 9 6 27 31 26 27 24 23 24 23 23 21 20 21 21 22
10 9 9 9 9 9 9 9 8 8 8 8 8 8 8 9 9 8 7 7 7 6 5 4 5 6 7 9 8 4 4 4 7 11 6 4 7 6 4 6 9 11 12 15 15 12 10 8 8 9 13 13 11 13 13 14 10 5 4 3 3 3 7 9 11 14 12 15 19 11 3 8 8 7 28 31 30 32 24 24 24 21 22 20 20 20 20 21
10 9 8 8 8 8 9 9 9 9 8 8 8 8 8 9 10 9 8 8 7 7 5 3 5 6 8 13 9 6 9 10 10 10 9 9 10 10 8 6 10 11 9 11 11 11 10 5 5 8 11 14 14 10 6 5 5 3 3 5 3 4 8 9 11 15 12 11 15 14 3 7 7 9 24 27 28 32 26 26 25 22 21 19 19 19 21 22
10 9 8 8 8 8 8 9 9 9 9 9 8 9 9 11 11 10 9 8 8 7 4 2 5 6 7 9 7 6 12 14 12 9 10 11 11 12 10 6 8 8 7 9 9 8 8 6 8 10 11 11 8 5 4 4 4 2 4 5 5 6 8 8 9 14 14 7 12 13 4 5 7 6 23 26 25 29 27 26 26 25 23 19 19 19 22 24
11 9 9 9 8 8 8 8 8 9 9 9 9 10 11 12 12 11 10 8 8 7 4 1 4 7 7 6 6 9 13 10 9 11 10 12 12 11 8 7 9 10 8 8 9 9 7 8 9 9 8 6 4 3 4 5 4 3 4 5 5 6 6 4 4 9 13 7 8 9 6 5 7 2 17 24 26 27 25 26 27 28 26 23 21 20 23 25
11 10 9 9 8 8 7 7 7 7 7 8 10 11 13 14 13 13 11 8 7 5 4 4 2 4 7 12 11 11 14 9 9 13 11 11 13 13 11 9 9 11 10 8 11 13 9 7 6 4 4 4 4 4 4 5 4 3 4 4 5 7 5 7 5 7 11 8 8 8 6 6 7 3 7 20 32 27 22 26 27 28 29 27 24 22 24 25
12 10 10 10 9 8 7 6 5 4 5 7 9 12 14 15 13 12 9 7 6 2 2 7 11 4 4 12 12 10 13 12 10 12 13 11 11 12 11 10 11 12 11 6 8 12 9 4 3 3 4 5 5 5 5 4 2 4 6 4 5 7 4 5 6 6 7 7 7 7 6 7 5 6 3 15 33 29 24 26 25 25 28 28 26 25 26 26
14 11 10 10 9 7 6 5 4 3 3 6 10 12 12 12 7 3 6 10 12 11 11 12 19 18 14 15 8 9 11 12 12 12 13 11 9 9 9 11 13 12 8 4 5 11 10 3 4 6 6 8 6 4 2 3 3 5 6 5 7 7 5 3 6 4 5 6 3 2 4 7 4 6 5 11 25 24 22 22 22 23 24 26 28 27 27 26
16 12 10 11 9 7 4 2 2 2 4 7 10 11 11 10 5 3 3 10 16 18 20 20 21 24 25 24 9 12 12 11 12 13 11 12 11 8 8 11 9 6 7 7 6 8 9 5 6 9 8 8 6 4 2 4 5 5 5 5 7 7 6 4 6 4 7 6 2 5 4 6 4 5 5 6 12 14 19 20 22 26 25 26 30 31 30 26
18 13 11 10 8 6 2 1 2 3 6 7 8 11 11 9 8 10 9 10 17 20 22 23 24 25 27 29 19 12 12 10 11 12 13 14 13 9 10 11 6 4 6 7 6 4 5 6 9 11 9 7 4 3 5 4 5 4 4 5 6 4 5 6 5 6 7 4 3 6 6 6 6 7 5 3 8 15 27 28 29 30 26 25 29 32 31 28
19 16 12 9 7 5 3 2 2 3 6 6 9 10 8 7 9 14 12 8 15 20 21 22 25 28 27 27 20 14 13 11 11 15 17 16 16 14 11 8 6 7 6 6 6 4 4 7 11 11 7 6 2 4 5 5 4 2 2 2 6 6 3 4 5 4 5 3 1 5 7 6 6 8 7 1 7 16 26 31 33 34 32 30 31 34 34 32
18 17 14 10 8 7 6 4 4 5 6 8 9 5 6 10 9 13 12 6 9 15 19 22 24 27 27 23 14 13 13 12 13 16 21 19 18 15 10 8 7 6 7 9 10 8 7 7 6 5 6 5 2 4 3 3 3 4 3 3 5 7 4 1 2 4 6 4 2 5 6 6 6 5 6 4 4 10 18 23 27 29 30 31 32 34 34 33
17 17 15 11 8 7 7 6 5 5 7 10 8 6 8 9 8 12 12 4 5 9 13 16 21 23 25 20 14 16 16 14 17 18 24 26 20 13 10 11 8 5 9 11 10 9 9 7 5 6 4 2 3 2 1 2 1 4 4 5 6 8 8 4 1 3 6 5 3 4 3 5 6 5 7 5 1 5 10 12 15 18 21 27 32 32 31 31
17 16 16 12 9 8 7 8 6 6 9 10 12 12 9 6 7 13 9 1 3 6 6 8 12 14 18 19 17 17 11 11 19 21 24 28 23 14 8 8 7 7 10 7 3 4 5 4 6 6 3 3 3 1 3 2 1 3 4 4 3 6 8 5 2 3 3 2 4 5 5 3 6 6 7 5 3 6 6 7 10 10 16 27 33 33 33 31
16 16 16 13 10 8 8 8 8 9 12 9 13 14 10 7 10 12 4 0 3 4 4 7 9 7 10 16 16 10 3 8 17 21 24 26 21 17 8 5 5 6 6 1 1 2 1 3 4 4 4 2 1 2 5 5 3 3 5 4 5 5 6 5 4 2 3 2 3 2 6 2 4 5 7 6 5 5 5 6 7 11 22 31 32 32 35 33
16 15 15 13 10 8 9 9 10 10 10 7 13 14 12 11 10 7 2 1 3 2 3 5 7 3 6 15 19 12 10 12 8 12 25 24 16 13 8 7 6 7 7 2 3 4 3 6 4 4 3 1 3 5 6 6 4 4 6 4 1 4 6 6 5 3 2 2 4 4 3 3 4 6 7 7 5 2 3 5 5 8 16 29 36 35 35 33
16 15 13 13 10 7 7 7 6 7 5 6 11 12 13 10 6 3 3 1 3 1 2 5 6 5 6 11 16 16 17 14 3 11 22 19 13 10 6 8 6 7 9 4 5 5 3 6 7 5 4 3 4 7 7 5 6 5 3 1 3 3 4 5 4 3 2 3 3 6 2 2 3 6 4 4 3 1 3 2 4 3 4 20 35 31 28 29
15 15 13 12 9 7 7 6 2 9 10 8 9 12 13 7 2 2 1 1 3 1 4 5 3 6 7 6 9 13 13 11 6 15 16 12 13 12 9 11 8 5 7 5 3 5 4 5 4 3 3 3 3 5 5 6 4 3 3 3 4 2 3 4 4 1 2 1 5 5 2 2 4 4 2 1 2 3 4 3 4 5 8 17 31 27 24 27
14 15 14 12 8 9 11 5 2 6 10 10 12 12 9 4 1 2 1 2 4 3 1 4 4 6 9 6 5 9 9 8 8 12 9 6 8 9 4 7 6 2 4 5 5 6 4 2 2 2 7 6 3 4 5 6 3 3 4 3 4 4 4 2 3 2 1 4 4 2 5 3 3 3 3 4 2 4 6 4 6 9 13 19 25 26 23 22
14 14 15 13 10 12 13 7 2 5 6 9 12 9 4 1 0 3 2 3 3 3 3 2 6 7 9 9 6 7 7 6 8 6 6 6 4 5 4 3 3 0 4 4 3 5 4 1 2 3 8 8 2 2 5 6 2 3 3 2 2 3 3 3 3 2 1 4 4 3 5 2 4 4 3 5 2 3 5 7 10 14 15 20 24 24 25 24
15 15 15 14 13 15 14 9 6 6 6 7 9 6 1 1 2 4 3 1 2 3 2 5 8 9 10 9 7 8 7 6 7 6 5 7 6 5 6 7 7 3 2 3 3 4 4 5 3 2 3 7 4 1 1 4 1 3 4 3 4 2 2 1 2 1 1 4 5 4 1 1 4 4 3 7 5 2 10 15 18 19 18 18 25 30 28 26
15 16 16 15 15 16 15 12 8 5 5 7 6 3 1 2 3 4 3 4 5 5 5 6 10 10 8 8 6 8 6 5 7 6 5 5 4 4 5 7 8 5 4 2 1 0 2 5 4 3 1 7 6 4 5 4 3 3 4 4 5 4 3 2 2 2 2 4 5 2 1 1 2 4 5 6 4 11 18 20 19 18 21 24 26 28 26 23
15 15 16 16 16 16 15 13 10 7 6 5 3 0 3 3 3 3 4 5 6 8 7 8 7 7 6 5 6 9 7 3 6 6 4 5 4 4 4 4 7 5 3 2 2 1 2 4 4 6 8 8 6 5 5 3 2 3 2 2 2 5 5 3 3 5 5 2 3 1 2 2 3 4 6 4 4 13 16 16 16 16 24 30 27 25 24 22
16 15 17 18 16 14 13 14 12 11 9 4 1 2 4 3 4 3 4 6 6 7 6 3 3 4 5 2 4 9 8 6 6 4 2 4 5 6 7 5 6 6 4 4 2 1 3 6 5 6 11 8 4 2 2 2 2 2 2 1 2 5 6 4 2 2 3 2 2 3 3 1 0 4 5 3 4 8 10 12 15 18 24 27 24 24 24 22
16 14 16 19 17 10 9 11 12 12 10 5 2 3 3 4 8 7 7 11 12 10 6 2 1 2 4 3 2 4 3 5 5 4 2 3 3 4 5 6 8 9 6 5 1 1 2 4 7 3 5 6 6 5 3 3 4 2 2 4 3 2 4 4 1 2 2 1 3 4 3 1 1 2 5 2 3 6 7 10 14 18 23 24 23 24 23 21
16 14 16 19 14 9 10 8 10 13 11 5 3 4 4 6 10 11 11 13 14 10 4 0 1 2 3 3 3 3 1 2 1 3 3 2 3 3 4 2 5 5 2 5 3 1 2 1 7 6 4 2 3 3 2 4 1 2 4 5 1 3 1 1 2 1 0 1 3 3 2 1 2 2 5 4 3 5 6 8 11 13 17 21 23 23 21 19
14 13 12 10 5 10 15 12 13 14 10 3 3 4 4 7 12 16 19 17 13 9 5 3 2 3 4 4 3 5 4 3 3 4 2 1 4 3 4 3 1 3 7 7 3 1 2 2 4 6 7 6 4 1 2 3 4 2 3 3 1 3 2 1 2 3 3 2 2 3 2 2 1 3 2 3 4 7 7 7 6 10 17 21 23 22 20 18
10 7 7 4 1 10 17 17 15 10 5 3 4 4 5 7 11 18 23 18 10 4 2 2 4 3 3 3 2 4 5 3 2 1 2 3 3 2 1 2 1 1 1 3 3 2 3 2 2 6 8 7 3 2 2 3 1 1 2 2 2 1 2 2 2 1 3 2 1 1 1 3 4 2 2 2 3 7 9 8 5 10 20 22 22 21 19 17
6 4 5 3 6 15 20 17 10 5 3 3 4 5 8 9 10 15 22 20 9 3 4 5 6 4 4 5 4 3 2 1 1 0 3 4 1 1 4 4 2 4 4 4 3 2 2 2 1 3 5 3 4 6 6 2 2 3 2 3 2 1 3 3 3 3 1 3 3 3 1 5 5 1 2 4 4 5 11 9 5 12 23 23 21 20 19 18
4 4 5 1 11 17 16 9 3 5 4 4 6 8 10 11 11 12 17 17 8 1 3 4 5 5 4 3 4 4 3 1 0 2 4 2 4 4 3 6 8 7 5 5 3 2 1 3 2 1 3 4 8 10 10 9 5 1 3 4 4 3 4 4 1 3 2 1 3 4 1 5 5 1 2 4 4 5 14 16 11 15 23 23 21 19 18 18
7 9 9 5 9 11 8 3 4 4 3 6 11 14 15 12 10 11 12 8 3 3 4 3 4 5 4 2 2 3 3 2 3 3 1 2 6 7 7 11 14 11 5 3 2 3 3 3 2 2 4 4 8 10 9 10 8 4 0 3 3 2 3 5 4 3 2 2 3 3 0 4 5 4 2 5 3 8 17 19 17 18 20 21 20 19 18 17
14 14 10 6 9 9 5 2 3 4 4 8 9 11 14 13 10 11 9 4 3 4 3 3 5 4 3 3 3 4 4 2 2 5 3 2 5 9 9 9 12 8 3 3 2 0 1 1 2 1 3 5 6 7 7 7 6 3 3 4 4 2 4 3 1 2 1 1 3 4 1 3 5 5 2 4 3 8 12 15 18 18 18 21 20 18 17 15
13 10 8 7 8 10 8 6 5 4 4 6 6 5 8 10 11 12 9 5 4 4 4 5 6 6 5 5 4 5 5 1 1 4 4 2 2 7 11 12 13 8 4 8 8 3 1 1 3 4 2 1 1 0 2 5 5 3 5 5 5 4 4 3 2 3 1 3 3 4 2 4 5 6 6 6 7 9 9 13 17 15 16 18 18 17 16 14
7 4 7 9 4 5 9 10 7 5 4 5 5 5 5 5 8 12 10 5 3 9 9 8 7 6 5 6 5 5 6 5 3 4 4 4 2 3 9 15 16 12 8 10 10 5 2 1 2 3 5 4 4 3 3 4 4 4 6 7 6 5 4 5 3 1 3 1 3 1 5 3 2 4 6 6 7 7 7 11 14 14 16 17 16 15 14 14
6 1 5 8 7 6 6 8 8 6 5 4 2 3 5 5 5 6 6 3 8 12 9 8 7 5 5 7 4 2 4 6 6 6 5 6 6 3 9 16 15 12 9 8 7 5 3 1 1 2 3 3 5 7 8 7 6 6 5 6 7 6 6 5 1 3 3 4 2 3 4 4 3 1 5 5 7 7 6 11 17 19 19 16 15 14 14 15
7 4 8 9 5 4 6 8 9 7 7 6 3 3 7 8 6 5 3 3 6 11 7 6 9 9 10 10 5 3 3 3 5 6 5 5 6 6 6 9 8 9 8 5 4 5 4 1 3 2 4 6 5 6 8 7 7 6 5 5 5 6 7 5 2 4 2 4 5 5 2 0 3 2 5 5 5 6 6 7 14 21 22 18 14 14 16 18
10 6 11 15 10 7 10 12 10 7 6 7 5 5 6 5 5 6 5 4 4 8 8 5 9 13 13 12 9 5 6 4 4 5 5 5 5 4 4 4 3 4 5 3 2 3 4 2 2 1 2 5 6 6 7 7 7 7 7 6 4 6 6 6 3 2 2 2 5 2 3 1 3 2 4 6 9 12 14 14 7 6 14 17 18 19 20 20
12 8 12 16 13 11 15 16 10 4 5 8 6 6 7 6 4 4 6 8 4 3 6 7 9 12 11 13 12 7 7 6 3 3 5 5 5 4 3 2 2 4 4 2 2 3 3 1 1 4 4 5 5 6 7 7 7 6 7 8 6 6 6 5 5 5 4 3 2 7 7 3 3 5 9 14 19 19 17 19 20 16 8 3 10 14 18 22
12 5 10 12 8 9 13 12 7 4 5 6 5 5 7 9 9 6 8 15 13 7 7 9 8 9 9 13 12 7 10 11 7 8 8 5 5 6 5 4 4 5 3 2 2 3 3 0 2 5 3 3 4 6 7 7 8 7 7 6 5 5 4 2 3 4 4 4 6 9 6 5 4 7 11 14 18 16 13 16 21 21 21 18 14 11 6 13
17 6 11 12 5 7 8 5 6 7 4 5 7 7 8 10 15 11 5 11 17 16 14 14 11 7 7 10 9 10 15 17 15 16 14 9 9 12 11 11 9 4 2 1 2 2 3 3 1 3 2 2 3 4 6 7 8 5 4 3 1 2 3 4 4 5 6 5 4 5 2 5 4 7 9 8 10 12 13 18 21 20 21 23 23 24 18 4
Wind_Direction
350 351 350 346 345 341 340 338 338 335 331 326 321 318 316 318 324 326 322 315 308 300 293 289 284 275 269 271 271 270 271 267 264 256 262 259 205 211 218 240 258 241 238 235 224 206 195 213 222 217 250 253 248 250 256 260 261 260 236 206 243 243 248 256 252 265 282 2 18 25 25 55 37 21 35 60 120 138 105 107 120 126 136 151 146 146 151 150
349 351 348 347 347 348 349 348 350 347 343 337 328 321 315 316 323 327 324 313 300 290 276 273 266 262 271 275 277 281 280 282 273 261 265 212 199 215 215 236 253 248 251 234 210 197 190 209 221 228 237 243 241 239 243 243 244 243 199 203 225 231 246 259 259 276 314 323 7 34 33 50 48 20 31 14 328 11 91 104 115 117 126 142 145 148 152 153
344 349 348 349 351 353 357 358 359 355 351 348 340 329 317 314 320 327 325 312 291 279 267 261 261 268 277 280 289 294 294 296 285 276 279 184 214 227 221 233 247 251 248 227 208 194 192 219 225 222 223 233 239 237 235 225 234 228 220 241 238 247 255 262 269 290 319 328 6 43 30 29 48 17 25 7 340 347 97 127 120 118 131 143 149 152 154 155
334 342 347 350 351 354 359 2 3 359 356 353 350 343 330 319 317 324 325 316 297 279 270 262 264 269 278 289 295 299 306 312 297 289 357 32 270 244 234 237 242 244 234 217 210 206 223 248 250 238 223 224 232 238 238 223 227 211 207 224 242 256 268 268 277 310 352 15 18 18 12 19 12 327 295 73 330 319 138 150 152 144 147 150 152 155 156 158
321 329 338 344 349 351 355 359 0 0 0 356 354 351 345 334 324 324 324 320 301 279 271 264 264 268 278 290 290 300 318 342 340 302 282 321 345 325 259 237 236 229 217 211 211 216 237 257 262 255 240 230 230 236 243 232 228 217 221 221 233 248 258 273 284 313 356 11 6 358 350 351 331 305 247 227 223 272 147 161 163 157 154 157 156 156 156 156
309 312 321 334 342 343 345 350 354 358 360 359 356 352 351 344 335 327 321 322 305 284 273 263 265 271 276 288 289 300 315 234 317 285 276 311 332 323 281 225 220 209 207 202 202 213 238 259 262 257 249 242 239 242 255 244 227 223 255 231 239 248 250 275 284 298 319 334 342 345 331 324 311 299 291 295 176 124 142 154 153 153 156 158 157 156 155 157
298 300 305 317 327 332 335 338 346 352 356 358 357 353 350 348 343 334 326 321 304 288 275 268 268 270 281 293 295 304 285 275 291 277 275 309 319 297 249 217 205 199 196 185 192 208 239 256 247 242 249 233 239 246 257 256 235 223 246 235 246 254 263 275 279 292 316 337 341 340 331 313 296 299 319 353 106 116 129 137 142 146 151 153 154 156 158 162
288 291 294 301 309 317 323 327 337 346 352 354 357 356 352 351 348 340 334 323 309 296 280 275 266 269 291 303 321 317 292 294 306 261 274 295 295 269 225 206 193 189 185 180 192 215 247 255 238 234 246 235 239 239 246 256 247 233 232 233 244 258 274 283 285 289 296 310 314 303 289 277 278 284 305 86 113 119 125 132 143 145 147 150 152 159 162 164
285 284 285 291 296 302 311 317 327 339 348 352 357 358 354 356 355 349 344 330 317 302 288 280 271 284 300 309 341 320 301 319 293 252 286 294 277 238 205 195 187 184 182 187 202 227 255 255 232 226 234 247 250 251 262 266 244 233 230 235 239 252 272 280 281 276 278 282 265 261 245 258 268 268 276 149 124 128 129 130 143 147 152 155 157 166 167 167
289 282 279 282 287 293 299 305 315 330 344 350 355 357 355 356 357 354 348 338 324 303 292 279 280 293 284 296 6 334 301 304 270 269 301 293 250 197 179 177 178 181 184 197 228 244 260 254 241 245 247 252 261 275 285 279 277 277 261 260 264 258 261 267 272 264 264 262 238 222 238 254 251 246 259 142 129 132 131 127 135 145 155 159 162 169 169 171
296 288 281 276 277 286 291 295 303 319 336 345 350 354 353 352 355 356 350 343 328 308 293 277 290 274 272 285 244 242 291 288 284 298 312 294 205 177 165 160 170 182 188 216 245 255 260 255 264 281 278 296 305 286 279 277 288 293 290 283 278 282 275 272 283 278 272 255 220 205 237 256 244 234 162 135 135 133 128 125 129 137 149 157 161 169 170 170
303 295 287 277 272 276 284 289 293 306 325 338 343 350 349 344 347 351 351 346 333 317 298 282 290 267 284 276 250 258 302 302 300 297 309 320 161 157 153 152 172 199 222 245 250 262 266 262 283 308 305 322 315 285 304 308 298 281 280 299 287 296 282 271 273 269 271 261 222 216 243 264 254 214 137 137 140 131 127 128 130 133 145 155 159 166 168 167
309 300 294 286 277 272 275 283 286 294 310 327 334 342 344 340 340 343 345 342 335 321 302 294 295 291 298 272 259 280 296 218 278 271 291 307 157 145 154 174 211 238 248 259 264 284 282 262 272 292 295 303 302 304 313 309 302 269 263 285 280 295 271 250 241 246 246 244 234 215 239 261 269 183 140 141 142 135 133 134 133 134 143 153 160 166 165 162
316 307 302 295 288 278 271 275 281 286 295 314 325 330 334 333 331 331 329 327 331 322 300 304 311 312 298 265 256 261 226 203 236 250 260 224 187 175 196 221 251 259 254 262 272 293 303 271 260 276 288 290 287 299 305 302 302 284 275 274 241 259 264 239 221 226 223 234 218 179 216 251 272 200 154 149 143 140 140 138 137 140 145 154 164 170 167 162
323 316 311 305 300 288 277 273 275 279 285 300 314 318 319 321 323 323 317 308 313 317 299 314 328 327 303 276 267 236 224 225 230 238 229 213 208 213 221 230 247 252 248 257 266 285 301 292 273 274 271 271 270 277 286 288 282 239 244 273 231 208 258 248 215 210 211 224 184 154 245 245 266 233 167 155 146 141 141 140 141 146 152 160 167 171 169 166
332 326 318 313 309 299 290 278 273 274 277 289 301 304 303 307 312 312 310 296 293 306 300 338 344 334 317 283 267 231 228 235 229 221 216 213 207 207 213 224 238 240 236 250 262 284 296 262 255 262 259 266 265 256 275 291 290 241 204 243 238 213 249 254 216 199 198 200 150 151 230 234 272 236 160 160 153 143 140 141 142 145 152 160 167 174 173 171
339 332 325 320 315 307 299 287 281 275 272 278 285 291 295 299 303 302 304 286 274 289 271 247 358 319 286 244 239 230 229 236 213 202 213 214 208 202 195 203 223 232 234 242 246 255 264 238 234 252 257 258 254 262 282 271 276 284 238 239 253 241 233 220 210 192 188 173 143 172 214 230 282 263 153 158 152 141 135 138 140 142 147 155 164 176 177 173
346 336 332 326 321 316 309 302 295 281 269 269 275 288 295 295 293 290 292 277 263 288 268 205 148 328 267 234 236 230 221 216 194 197 211 217 220 219 201 199 218 222 220 226 233 233 233 226 218 243 270 261 249 234 225 238 256 304 284 263 278 275 231 187 199 201 184 159 147 183 224 249 270 262 156 146 146 143 135 135 140 145 149 153 161 173 177 176
351 342 337 331 328 323 318 313 302 287 270 266 279 293 298 297 291 281 275 257 232 235 270 202 189 192 272 246 235 222 215 203 188 194 206 216 230 233 215 207 222 218 211 215 221 218 209 210 229 243 265 254 241 216 216 245 283 322 310 294 299 294 262 167 161 179 164 145 158 178 214 247 237 224 223 137 143 146 143 140 141 147 151 154 161 169 175 177
353 345 338 335 332 324 322 318 305 299 278 276 292 302 306 306 304 272 237 242 248 255 267 243 218 223 263 279 245 185 191 190 191 198 206 213 211 226 223 215 227 224 214 217 214 207 195 189 232 225 233 233 217 190 234 320 349 334 327 322 323 321 319 55 113 136 92 108 176 219 240 255 234 235 257 147 142 144 147 143 140 148 154 156 161 166 172 173
356 348 340 337 332 327 327 317 325 325 303 295 302 309 312 312 324 357 286 268 277 275 270 264 247 242 260 278 255 159 163 182 203 206 205 210 205 213 212 206 231 242 223 235 246 221 196 200 233 230 232 226 202 144 81 13 8 356 348 331 326 328 320 359 78 80 61 75 310 334 328 292 297 307 288 161 138 137 149 146 148 159 164 164 164 166 169 168
358 350 340 337 330 325 312 309 337 320 314 310 306 305 308 330 344 333 329 298 289 284 272 265 261 254 258 270 258 195 178 189 206 210 202 204 206 207 190 184 219 247 225 233 244 234 204 227 242 234 232 223 209 84 64 39 25 9 358 342 313 309 325 343 23 56 64 64 319 347 354 316 314 329 313 154 120 142 157 158 160 165 169 170 168 168 170 166
356 352 342 334 326 313 281 296 296 301 326 314 304 305 311 354 348 321 324 307 288 285 270 255 254 253 254 262 249 203 194 197 199 205 201 201 203 204 197 187 212 226 225 223 210 194 200 239 242 225 202 194 190 48 43 29 18 332 304 322 293 292 349 345 327 10 57 84 44 13 354 315 319 340 324 329 111 140 156 162 167 169 172 174 172 171 169 167
350 351 344 331 320 302 281 288 291 314 324 293 293 329 356 350 328 317 324 301 276 279 265 245 241 244 244 253 240 202 212 220 216 203 193 200 203 201 217 227 226 229 226 216 205 208 224 230 220 168 147 155 108 55 43 30 354 300 238 213 263 287 314 340 289 355 25 14 22 40 9 318 315 334 304 306 87 133 145 153 165 175 180 176 171 172 169 167
342 347 345 332 318 301 283 281 287 314 309 293 310 354 4 345 319 324 330 300 258 270 262 240 233 234 233 239 235 219 221 224 234 220 194 198 201 193 216 228 227 248 246 232 212 213 235 218 148 107 109 123 104 110 175 161 285 303 259 222 231 265 288 284 244 50 40 346 309 97 55 305 299 304 275 286 21 163 155 148 169 186 186 170 161 167 168 166
335 339 341 333 319 306 287 281 282 293 290 306 344 352 348 345 322 325 329 306 277 260 237 209 208 218 220 223 221 218 224 227 238 234 198 191 200 200 212 221 211 233 249 254 234 210 229 197 132 107 79 42 58 358 284 209 204 288 265 275 269 268 289 296 317 59 90 273 255 142 129 269 298 306 276 272 271 226 187 154 173 168 150 152 155 162 165 164
328 332 336 331 320 305 294 282 274 282 281 303 358 354 331 320 324 329 337 327 289 231 181 169 174 193 207 204 199 192 220 230 231 229 196 181 197 208 217 253 239 244 253 263 9 279 164 119 107 113 104 64 75 284 263 212 187 242 238 281 320 321 321 325 339 317 200 226 277 181 146 187 286 286 281 287 283 253 192 151 160 141 135 146 154 160 166 169
321 325 328 327 318 304 304 291 281 291 286 308 359 347 312 306 317 332 54 21 292 195 157 168 172 211 207 189 189 193 233 240 229 204 185 179 200 203 199 245 257 281 284 236 219 251 139 135 160 141 118 129 202 238 243 202 189 234 220 213 319 4 344 337 346 304 230 117 314 301 164 172 272 266 285 300 294 277 142 131 131 132 140 152 158 165 172 173
315 317 319 321 315 300 301 291 298 333 321 321 345 327 305 311 322 348 77 111 295 300 169 171 174 210 211 189 192 208 239 253 222 162 171 179 207 210 211 252 273 307 295 261 209 222 180 176 180 138 128 180 218 239 248 229 209 210 206 107 52 23 325 317 317 305 9 88 261 281 236 188 273 267 283 311 293 174 126 92 120 111 95 154 162 164 167 167
307 308 309 311 306 287 274 265 350 11 357 338 321 308 307 319 21 55 63 224 287 279 151 150 166 192 198 203 199 206 237 266 209 171 168 179 205 214 246 270 274 296 300 311 289 249 229 188 168 120 167 209 259 260 269 272 234 145 92 24 25 346 287 271 256 254 41 337 248 256 271 268 276 279 281 269 266 177 148 45 80 97 64 129 158 164 162 168
297 298 298 297 293 275 262 243 74 6 350 331 302 301 314 323 99 131 210 297 304 284 149 154 189 192 193 211 216 198 218 259 221 180 169 187 204 200 233 282 269 274 319 330 316 281 272 157 147 202 209 214 281 292 299 298 291 74 67 40 22 335 323 320 320 51 106 264 264 324 2 332 264 266 264 251 237 126 129 99 95 101 79 102 141 161 158 157
288 287 287 285 276 260 251 241 245 277 302 318 308 311 337 8 229 204 224 345 322 283 320 255 212 204 196 204 228 212 198 229 239 210 176 170 184 188 177 211 219 309 321 299 312 303 299 266 203 211 212 207 200 291 308 314 316 101 104 92 65 325 356 9 338 13 205 244 259 322 17 21 248 245 279 299 270 146 124 119 112 106 95 89 100 117 119 115
284 278 279 278 267 255 250 250 263 268 280 316 329 336 26 116 228 229 227 309 249 223 321 295 259 237 205 193 217 226 201 197 221 230 207 177 165 186 196 203 204 181 210 253 346 342 324 318 297 300 220 193 168 144 263 303 296 148 165 158 151 162 52 350 284 315 275 276 280 286 34 32 294 274 300 322 307 119 95 105 109 101 100 94 89 95 103 104
285 275 275 274 262 254 251 248 252 272 299 317 336 354 124 188 245 252 250 260 256 239 226 254 275 270 229 195 200 220 207 197 207 205 211 197 164 170 193 210 217 195 164 184 358 124 302 312 285 301 259 171 176 187 184 214 250 215 200 156 146 156 144 181 214 163 212 275 303 311 131 151 280 271 268 299 6 75 83 96 104 94 91 93 94 96 99 101
293 276 269 268 261 252 247 240 238 247 272 303 340 118 185 223 246 244 258 256 254 260 246 234 264 289 263 218 209 217 197 193 239 229 209 207 186 173 186 215 228 212 144 160 221 194 247 259 223 225 223 185 174 196 192 209 274 280 318 70 143 176 153 155 185 176 177 235 317 277 217 183 197 260 269 263 66 76 84 88 87 86 90 93 95 97 98 101
301 281 267 264 263 256 244 236 231 229 235 244 296 228 212 233 250 238 277 283 277 304 320 285 258 277 270 256 241 229 190 165 215 232 228 217 196 183 186 193 208 206 162 152 209 212 209 257 266 218 211 195 166 205 205 152 182 295 344 8 216 170 132 121 214 219 135 111 283 235 237 329 218 273 273 213 128 99 99 89 80 82 88 91 93 95 97 100
308 291 271 261 259 250 230 226 220 212 212 202 198 241 233 248 258 258 288 300 297 306 327 347 1 317 289 292 283 256 182 156 191 199 221 240 236 244 229 201 189 194 186 155 184 315 147 260 300 293 218 211 210 244 314 52 97 65 309 266 293 37 93 103 119 331 53 120 264 228 202 184 129 271 297 285 146 123 111 103 97 90 88 89 92 95 97 99
318 308 281 266 260 234 217 213 198 194 196 197 224 248 257 259 266 278 291 295 297 303 308 276 162 191 262 281 289 299 184 151 215 225 217 195 226 294 334 261 192 169 106 96 110 336 69 308 300 318 322 286 208 211 315 345 14 163 234 265 3 60 13 39 118 178 166 202 275 269 220 128 137 227 300 324 56 77 71 88 101 96 93 94 95 99 101 102
325 322 294 279 248 208 209 200 190 195 200 214 231 238 257 259 262 268 270 270 275 284 282 279 270 213 220 230 252 286 269 214 221 238 239 233 239 278 2 329 293 44 34 52 94 229 88 104 283 307 337 358 11 118 169 299 312 267 259 292 69 133 162 191 171 168 164 181 254 304 341 3 251 250 314 9 63 73 56 50 81 101 100 99 100 103 105 108
326 315 293 305 203 200 196 184 183 196 208 222 227 243 262 265 264 262 266 270 270 269 268 302 329 315 281 288 256 258 263 243 226 248 243 226 231 252 269 273 269 140 91 77 76 1 42 93 251 302 344 6 350 279 173 167 254 7 30 16 345 357 81 59 332 8 112 141 185 69 23 290 267 270 325 355 96 108 86 51 46 99 100 100 104 107 110 112
330 261 289 2 151 179 177 171 178 200 219 229 231 250 257 261 271 274 280 289 297 0 355 321 315 306 303 329 327 286 278 290 75 2 250 230 118 32 254 247 209 175 149 100 73 15 33 99 171 301 339 336 281 300 328 346 145 142 128 145 170 133 87 67 343 320 64 126 159 131 162 264 259 239 341 11 31 98 115 112 101 102 104 107 110 111 114 118
350 249 286 132 160 173 169 164 205 209 205 239 240 249 257 258 264 269 276 284 288 295 295 289 292 289 279 293 305 314 336 9 92 227 241 224 86 71 355 15 50 71 84 93 87 31 56 100 87 292 272 275 290 307 320 323 323 246 168 151 138 120 112 114 178 278 283 185 152 118 145 261 263 259 62 53 21 67 110 121 117 107 110 114 116 116 117 118
327 287 281 238 200 193 176 185 276 237 219 246 243 251 259 258 261 263 263 272 281 270 261 254 278 283 284 290 293 315 330 333 322 308 298 98 98 89 49 35 45 48 49 70 57 359 7 76 80 302 288 299 310 314 314 321 331 330 36 91 97 136 141 146 182 203 223 232 151 116 222 272 282 292 106 131 151 92 102 116 118 113 116 119 122 123 121 119
320 300 285 240 213 206 181 176 251 260 260 248 243 253 261 264 268 264 264 277 283 290 297 288 292 299 326 343 346 342 346 28 350 335 0 75 106 103 100 81 65 53 30 41 54 321 357 70 100 35 340 339 332 332 336 340 354 354 334 39 64 37 47 60 4 55 56 287 118 111 224 263 286 307 32 97 85 75 92 112 117 116 120 123 124 124 124 128
326 312 298 271 223 209 215 226 228 242 269 268 274 283 275 282 283 274 276 277 276 337 348 312 327 351 347 337 348 344 333 346 11 340 354 7 124 125 132 119 96 89 80 61 61 82 135 138 106 117 157 258 272 307 6 342 350 355 334 1 31 6 28 82 65 57 59 322 39 97 189 259 303 345 22 41 58 73 84 95 101 108 118 124 127 130 131 132
325 328 334 324 299 225 240 261 277 280 275 282 292 292 284 292 299 302 307 306 17 15 343 311 339 4 351 348 359 353 332 325 345 358 4 8 350 151 135 118 103 100 93 69 62 62 73 83 87 139 180 198 232 261 325 341 336 330 328 339 344 342 31 75 62 91 171 337 347 170 156 165 291 23 40 35 49 72 97 107 113 120 127 130 132 136 139 136
330 334 18 354 333 341 338 334 344 332 305 315 329 315 320 321 316 320 320 338 40 33 356 325 359 13 346 348 344 334 327 322 349 9 12 15 356 6 95 100 96 92 87 77 83 92 71 12 303 268 247 259 280 299 317 323 309 301 310 319 316 328 10 36 335 237 161 94 318 270 97 110 232 35 64 62 54 57 95 129 138 137 138 143 145 148 152 147
8 359 13 9 339 320 349 351 345 334 328 336 354 6 356 354 355 358 344 326 30 44 27 342 5 10 357 2 2 340 335 325 359 12 10 21 4 347 47 80 96 107 100 88 105 116 110 201 251 274 289 292 297 303 310 308 300 304 307 303 318 351 0 355 273 233 130 120 221 246 41 71 245 53 73 93 87 68 72 118 150 151 152 160 165 168 169 163
18 356 347 357 352 302 306 321 321 318 343 2 7 1 358 5 6 355 351 339 358 38 48 25 9 8 8 26 42 28 10 9 14 11 358 5 4 337 8 50 88 107 97 89 72 82 101 172 259 354 338 330 338 330 328 326 311 308 312 313 358 36 16 355 327 302 62 135 211 176 72 296 249 87 74 62 53 49 45 40 45 144 164 174 181 186 182 171
10 355 338 340 336 319 319 325 322 316 11 22 20 357 350 3 8 347 11 27 1 358 50 52 20 8 18 40 50 38 13 11 16 16 6 3 4 359 11 20 348 359 30 64 35 37 75 142 1 50 30 343 339 327 324 327 317 319 327 328 356 20 2 354 347 348 18 4 359 66 60 317 298 56 57 51 47 46 46 39 26 16 22 129 183 203 203 183
14 17 349 337 317 322 329 331 351 43 36 16 7 359 353 1 13 18 31 34 31 24 42 50 33 21 33 41 40 20 353 351 345 340 343 346 335 323 326 339 352 5 17 42 42 56 94 117 20 59 45 310 316 327 330 347 355 352 340 332 358 16 359 357 4 15 38 13 14 44 33 295 304 46 55 57 55 49 40 37 37 33 28 33 36 15 305 209
19 33 6 358 308 302 323 347 35 43 26 356 0 4 2 11 24 31 27 20 23 25 36 51 46 29 39 37 16 349 340 335 324 319 319 317 315 310 309 315 322 332 331 32 63 103 118 107 96 86 86 255 288 337 350 13 11 339 306 310 344 50 55 45 17 29 60 66 56 57 357 295 330 35 48 53 56 53 42 40 47 46 36 31 30 25 12 331